,,,PA_Meas_PMT16A,,PR_Meas_QMR101_102,,RH_Meas_QMH101,,SR_Meas_QMS101,,TA_Meas_QMH101,,GenWind,,GenWind,
date,time,status,PA,status,PR,status,RH,status,SR,status,TA,status,DirAvg,status,SpdAvg,
2010-12-12, 00:00:04,VALID,997.072,VALID,0,VALID,89.6175,VALID,0,VALID,23.2897,VALID,59,VALID,0.441406,
2010-12-12, 00:01:04,VALID,997.072,VALID,0,VALID,89.6786,VALID,0.112286,VALID,23.2702,VALID,15,VALID,0.640625,
2010-12-12, 00:02:04,VALID,997.062,VALID,0,VALID,89.6099,VALID,0,VALID,23.2312,VALID,335,VALID,0.642578,
2010-12-12, 00:03:04,VALID,997.035,VALID,0,VALID,89.5107,VALID,0,VALID,23.2117,VALID,335,VALID,0.657812,
2010-12-12, 00:04:04,VALID,997.018,VALID,0,VALID,89.4191,VALID,0,VALID,23.2117,VALID,335,VALID,0.470703,
2010-12-12, 00:05:04,VALID,996.988,VALID,0,VALID,89.3886,VALID,0.112286,VALID,23.1921,VALID,335,VALID,0.283984,
2010-12-12, 00:06:04,VALID,997.008,VALID,0,VALID,89.3734,VALID,0,VALID,23.2117,VALID,335,VALID,0.132422,
2010-12-12, 00:07:05,VALID,996.957,VALID,0,VALID,89.4726,VALID,0.112286,VALID,23.2117,VALID,335,VALID,0.14375,
2010-12-12, 00:08:05,VALID,996.972,VALID,0,VALID,89.5107,VALID,0,VALID,23.1921,VALID,335,VALID,0.239453,
2010-12-12, 00:09:05,VALID,996.968,VALID,0,VALID,89.381,VALID,0,VALID,23.1921,VALID,335,VALID,0.45625,
2010-12-12, 00:10:05,VALID,996.962,VALID,0,VALID,89.3276,VALID,0,VALID,23.1921,VALID,39,VALID,0.703906,
2010-12-12, 00:11:05,VALID,996.945,VALID,0,VALID,89.0987,VALID,0,VALID,23.1921,VALID,43,VALID,0.439063,
2010-12-12, 00:12:05,VALID,996.921,VALID,0,VALID,89.2437,VALID,0.112286,VALID,23.2312,VALID,43,VALID,0.551172,
2010-12-12, 00:13:05,VALID,996.942,VALID,0,VALID,89.3734,VALID,0,VALID,23.2294,VALID,43,VALID,0.564844,
2010-12-12, 00:14:05,VALID,996.945,VALID,0,VALID,89.5107,VALID,0,VALID,23.2507,VALID,29,VALID,0.765625,
2010-12-12, 00:15:05,VALID,996.913,VALID,0,VALID,89.7091,VALID,0.112286,VALID,23.2507,VALID,29,VALID,0.733594,
2010-12-12, 00:16:05,VALID,996.978,VALID,0,VALID,89.9532,VALID,0.112286,VALID,23.2507,VALID,29,VALID,0.764844,
2010-12-12, 00:17:05,VALID,996.915,VALID,0,VALID,90.1592,VALID,0,VALID,23.2507,VALID,29,VALID,0.891406,
2010-12-12, 00:18:05,VALID,996.916,VALID,0,VALID,90.2966,VALID,0,VALID,23.2312,VALID,29,VALID,1.05469,
2010-12-12, 00:19:05,VALID,996.907,VALID,0,VALID,90.3347,VALID,0.112286,VALID,23.2312,VALID,29,VALID,1.0207,
2010-12-12, 00:20:05,VALID,996.894,VALID,0,VALID,90.3194,VALID,0,VALID,23.2117,VALID,29,VALID,1.09063,
2010-12-12, 00:21:05,VALID,996.895,VALID,0,VALID,90.1821,VALID,0,VALID,23.1921,VALID,29,VALID,1.09414,
2010-12-12, 00:22:05,VALID,996.857,VALID,0,VALID,89.9761,VALID,0.112286,VALID,23.1726,VALID,41,VALID,1.05586,
2010-12-12, 00:23:05,VALID,996.869,VALID,0,VALID,89.8846,VALID,0,VALID,23.1726,VALID,39,VALID,1.04375,
2010-12-12, 00:24:05,VALID,996.842,VALID,0,VALID,89.7625,VALID,0,VALID,23.1531,VALID,39,VALID,1.0957,
2010-12-12, 00:25:05,VALID,996.855,VALID,0,VALID,89.6709,VALID,0.112286,VALID,23.1336,VALID,39,VALID,0.953906,
2010-12-12, 00:26:05,VALID,996.83,VALID,0,VALID,89.6633,VALID,0,VALID,23.1531,VALID,38,VALID,1.08984,
2010-12-12, 00:27:05,VALID,996.817,VALID,0,VALID,89.6557,VALID,0,VALID,23.1336,VALID,38,VALID,1.11094,
2010-12-12, 00:28:05,VALID,996.774,VALID,0,VALID,89.8083,VALID,0,VALID,23.1531,VALID,36,VALID,1.18867,
2010-12-12, 00:29:05,VALID,996.786,VALID,0,VALID,89.9456,VALID,0,VALID,23.1336,VALID,36,VALID,1.03711,
2010-12-12, 00:30:05,VALID,996.77,VALID,0,VALID,90.0371,VALID,0,VALID,23.1549,VALID,34,VALID,1.06484,
2010-12-12, 00:31:05,VALID,996.773,VALID,0,VALID,90.0677,VALID,0,VALID,23.1549,VALID,30,VALID,0.998047,
2010-12-12, 00:32:05,VALID,996.763,VALID,0,VALID,90.1058,VALID,0,VALID,23.1354,VALID,27,VALID,0.901563,
2010-12-12, 00:33:05,VALID,996.733,VALID,0,VALID,90.144,VALID,0,VALID,23.1141,VALID,29,VALID,0.854688,
2010-12-12, 00:34:05,VALID,996.717,VALID,0,VALID,90.1363,VALID,0,VALID,23.1159,VALID,45,VALID,0.862109,
2010-12-12, 00:35:05,VALID,996.762,VALID,0,VALID,90.0753,VALID,0,VALID,23.1159,VALID,48,VALID,0.807031,
2010-12-12, 00:36:05,VALID,996.719,VALID,0,VALID,90.0753,VALID,0,VALID,23.0946,VALID,48,VALID,0.5625,
2010-12-12, 00:37:05,VALID,996.713,VALID,0,VALID,90.0753,VALID,0,VALID,23.0946,VALID,11,VALID,0.678516,
2010-12-12, 00:38:05,VALID,996.725,VALID,0,VALID,89.9685,VALID,0,VALID,23.0964,VALID,353,VALID,0.962109,
2010-12-12, 00:39:05,VALID,996.704,VALID,0,VALID,89.8693,VALID,0.112286,VALID,23.0751,VALID,11,VALID,1.00625,
2010-12-12, 00:40:05,VALID,996.668,VALID,0,VALID,89.6709,VALID,0,VALID,23.0751,VALID,45,VALID,1.15859,
2010-12-12, 00:41:05,VALID,996.704,VALID,0,VALID,89.6251,VALID,0,VALID,23.0751,VALID,53,VALID,1.16289,
2010-12-12, 00:42:05,VALID,996.693,VALID,0,VALID,89.5336,VALID,0.112286,VALID,23.0946,VALID,63,VALID,1.08359,
2010-12-12, 00:43:05,VALID,996.73,VALID,0,VALID,89.4954,VALID,0,VALID,23.0946,VALID,52,VALID,1.20273,
2010-12-12, 00:44:05,VALID,996.723,VALID,0,VALID,89.4802,VALID,0,VALID,23.1141,VALID,45,VALID,1.23867,
2010-12-12, 00:45:05,VALID,996.716,VALID,0,VALID,89.6023,VALID,0,VALID,23.1141,VALID,48,VALID,1.29883,
2010-12-12, 00:46:05,VALID,996.739,VALID,0,VALID,89.5565,VALID,0.112286,VALID,23.0946,VALID,48,VALID,1.39414,
2010-12-12, 00:47:05,VALID,996.678,VALID,0,VALID,89.381,VALID,0,VALID,23.0946,VALID,60,VALID,1.41055,
2010-12-12, 00:48:05,VALID,996.689,VALID,0,VALID,89.3428,VALID,0,VALID,23.1141,VALID,68,VALID,0.982422,
2010-12-12, 00:49:05,VALID,996.664,VALID,0,VALID,89.4802,VALID,0,VALID,23.1141,VALID,72,VALID,0.896094,
2010-12-12, 00:50:05,VALID,996.684,VALID,0,VALID,89.5717,VALID,0,VALID,23.1336,VALID,59,VALID,0.700391,
2010-12-12, 00:51:05,VALID,996.689,VALID,0,VALID,89.5794,VALID,0,VALID,23.1141,VALID,55,VALID,0.794141,
2010-12-12, 00:52:05,VALID,996.675,VALID,0,VALID,89.6862,VALID,0,VALID,23.0946,VALID,51,VALID,0.551953,
2010-12-12, 00:53:05,VALID,996.723,VALID,0,VALID,89.8006,VALID,0,VALID,23.0946,VALID,51,VALID,0.348828,
2010-12-12, 00:54:05,VALID,996.704,VALID,0,VALID,89.8846,VALID,0.112286,VALID,23.0751,VALID,44,VALID,0.519531,
2010-12-12, 00:55:05,VALID,996.721,VALID,0,VALID,89.9685,VALID,0.112286,VALID,23.0556,VALID,44,VALID,0.558594,
2010-12-12, 00:56:05,VALID,996.706,VALID,0,VALID,90.06,VALID,0.112286,VALID,23.0556,VALID,44,VALID,0.662891,
2010-12-12, 00:57:05,VALID,996.712,VALID,0,VALID,90.1974,VALID,0.112286,VALID,23.0361,VALID,46,VALID,0.73125,
2010-12-12, 00:58:05,VALID,996.691,VALID,0,VALID,90.2889,VALID,0.112286,VALID,23.0361,VALID,63,VALID,0.891797,
2010-12-12, 00:59:05,VALID,996.717,VALID,0,VALID,90.2584,VALID,0,VALID,23.0166,VALID,63,VALID,0.988672,
2010-12-12, 01:00:05,VALID,996.669,VALID,0,VALID,90.2355,VALID,0,VALID,23.0361,VALID,57,VALID,0.821094,
2010-12-12, 01:01:05,VALID,996.674,VALID,0,VALID,90.2126,VALID,0.112286,VALID,23.0361,VALID,71,VALID,0.992188,
2010-12-12, 01:02:05,VALID,996.672,VALID,0,VALID,90.0829,VALID,0,VALID,23.0166,VALID,75,VALID,1.01484,
2010-12-12, 01:03:05,VALID,996.696,VALID,0,VALID,89.7701,VALID,0,VALID,22.9971,VALID,76,VALID,0.978125,
2010-12-12, 01:04:05,VALID,996.702,VALID,0,VALID,89.7396,VALID,0,VALID,23.0166,VALID,59,VALID,0.748828,
2010-12-12, 01:05:05,VALID,996.676,VALID,0,VALID,89.7243,VALID,0.112286,VALID,23.0166,VALID,47,VALID,0.836719,
2010-12-12, 01:06:05,VALID,996.659,VALID,0,VALID,89.6862,VALID,0.112286,VALID,23.0166,VALID,47,VALID,0.624219,
2010-12-12, 01:07:05,VALID,996.666,VALID,0,VALID,89.6938,VALID,0.112286,VALID,23.0166,VALID,43,VALID,0.716406,
2010-12-12, 01:08:05,VALID,996.689,VALID,0,VALID,89.7777,VALID,0,VALID,23.0361,VALID,20,VALID,1.01094,
2010-12-12, 01:09:05,VALID,996.687,VALID,0,VALID,89.7854,VALID,0,VALID,23.0166,VALID,20,VALID,1.10195,
2010-12-12, 01:10:05,VALID,996.7,VALID,0,VALID,89.8083,VALID,0,VALID,22.9988,VALID,20,VALID,1.46172,
2010-12-12, 01:11:05,VALID,996.673,VALID,0,VALID,89.8083,VALID,0,VALID,22.9776,VALID,22,VALID,1.42148,
2010-12-12, 01:12:05,VALID,996.63,VALID,0,VALID,89.8083,VALID,0,VALID,22.9598,VALID,33,VALID,1.87695,
2010-12-12, 01:13:05,VALID,996.638,VALID,0,VALID,89.5946,VALID,0,VALID,22.9598,VALID,49,VALID,1.75664,
2010-12-12, 01:14:05,VALID,996.599,VALID,0,VALID,89.4649,VALID,0,VALID,22.919,VALID,56,VALID,1.62305,
2010-12-12, 01:15:05,VALID,996.606,VALID,0,VALID,89.3505,VALID,0,VALID,22.9403,VALID,45,VALID,1.45859,
2010-12-12, 01:16:05,VALID,996.595,VALID,0,VALID,89.2894,VALID,0,VALID,22.9403,VALID,32,VALID,1.27891,
2010-12-12, 01:17:05,VALID,996.599,VALID,0,VALID,89.3963,VALID,0,VALID,22.8995,VALID,24,VALID,1.30469,
2010-12-12, 01:18:05,VALID,996.602,VALID,0,VALID,89.7091,VALID,0,VALID,22.88,VALID,28,VALID,1.31992,
2010-12-12, 01:19:05,VALID,996.616,VALID,0,VALID,89.9761,VALID,0,VALID,22.8818,VALID,38,VALID,1.26523,
2010-12-12, 01:20:05,VALID,996.594,VALID,0,VALID,90.1363,VALID,0,VALID,22.8623,VALID,49,VALID,1.40039,
2010-12-12, 01:21:05,VALID,996.607,VALID,0,VALID,90.3271,VALID,0.112286,VALID,22.8605,VALID,41,VALID,1.175,
2010-12-12, 01:22:05,VALID,996.642,VALID,0,VALID,90.5102,VALID,0.112286,VALID,22.841,VALID,28,VALID,1.08242,
2010-12-12, 01:23:05,VALID,996.627,VALID,0,VALID,90.617,VALID,0,VALID,22.841,VALID,27,VALID,0.875781,
2010-12-12, 01:24:05,VALID,996.601,VALID,0,VALID,90.6475,VALID,0,VALID,22.802,VALID,27,VALID,0.844531,
2010-12-12, 01:25:05,VALID,996.585,VALID,0,VALID,90.7391,VALID,0,VALID,22.8037,VALID,26,VALID,0.790234,
2010-12-12, 01:26:05,VALID,996.574,VALID,0,VALID,90.8154,VALID,0,VALID,22.7825,VALID,25,VALID,0.863281,
2010-12-12, 01:27:05,VALID,996.55,VALID,0,VALID,90.8611,VALID,0,VALID,22.7842,VALID,25,VALID,1.00781,
2010-12-12, 01:28:05,VALID,996.551,VALID,0,VALID,90.8077,VALID,0,VALID,22.763,VALID,25,VALID,0.879687,
2010-12-12, 01:29:05,VALID,996.567,VALID,0,VALID,90.7391,VALID,0,VALID,22.7842,VALID,25,VALID,0.890625,
2010-12-12, 01:30:05,VALID,996.531,VALID,0,VALID,90.6475,VALID,0,VALID,22.7842,VALID,25,VALID,0.600391,
2010-12-12, 01:31:05,VALID,996.552,VALID,0,VALID,90.5788,VALID,0,VALID,22.7842,VALID,25,VALID,0.312891,
2010-12-12, 01:32:05,VALID,996.554,VALID,0,VALID,90.5102,VALID,0,VALID,22.763,VALID,25,VALID,0.0957031,
2010-12-12, 01:33:05,VALID,996.547,VALID,0,VALID,90.5026,VALID,0,VALID,22.763,VALID,25,VALID,0.101172,
2010-12-12, 01:34:05,VALID,996.554,VALID,0,VALID,90.5254,VALID,0,VALID,22.7825,VALID,25,VALID,0.154687,
2010-12-12, 01:35:05,VALID,996.549,VALID,0,VALID,90.5712,VALID,0,VALID,22.7842,VALID,25,VALID,0.105078,
2010-12-12, 01:36:05,VALID,996.526,VALID,0,VALID,90.5865,VALID,0,VALID,22.8037,VALID,25,VALID,0.0105469,
2010-12-12, 01:37:05,VALID,996.514,VALID,0,VALID,90.6323,VALID,0,VALID,22.8037,VALID,25,VALID,0.276563,
2010-12-12, 01:38:05,VALID,996.505,VALID,0,VALID,90.678,VALID,0,VALID,22.7825,VALID,25,VALID,0.241797,
2010-12-12, 01:39:05,VALID,996.447,VALID,0,VALID,90.6704,VALID,0,VALID,22.802,VALID,25,VALID,0.251563,
2010-12-12, 01:40:05,VALID,996.455,VALID,0,VALID,90.6551,VALID,0,VALID,22.8445,VALID,25,VALID,0.176563,
2010-12-12, 01:41:05,VALID,996.444,VALID,0,VALID,90.6323,VALID,0,VALID,22.8445,VALID,25,VALID,0.179688,
2010-12-12, 01:42:05,VALID,996.423,VALID,0,VALID,90.6323,VALID,0,VALID,22.864,VALID,25,VALID,0.201172,
2010-12-12, 01:43:05,VALID,996.422,VALID,0,VALID,90.5331,VALID,0,VALID,22.8835,VALID,25,VALID,0.128516,
2010-12-12, 01:44:05,VALID,996.436,VALID,0,VALID,90.411,VALID,0,VALID,22.8623,VALID,25,VALID,0.160156,
2010-12-12, 01:45:05,VALID,996.406,VALID,0,VALID,90.4873,VALID,0,VALID,22.8818,VALID,25,VALID,0.389453,
2010-12-12, 01:46:05,VALID,996.407,VALID,0,VALID,90.5331,VALID,0,VALID,22.9208,VALID,25,VALID,0.584766,
2010-12-12, 01:47:05,VALID,996.384,VALID,0,VALID,90.5712,VALID,0,VALID,22.9208,VALID,44,VALID,0.741016,
2010-12-12, 01:48:05,VALID,996.364,VALID,0,VALID,90.5788,VALID,0,VALID,22.9615,VALID,76,VALID,0.800781,
2010-12-12, 01:49:05,VALID,996.361,VALID,0,VALID,90.2584,VALID,0,VALID,22.9615,VALID,89,VALID,0.741016,
2010-12-12, 01:50:05,VALID,996.371,VALID,0,VALID,89.8998,VALID,0,VALID,22.9403,VALID,91,VALID,1.01719,
2010-12-12, 01:51:05,VALID,996.355,VALID,0,VALID,89.7091,VALID,0,VALID,22.9793,VALID,95,VALID,0.858594,
2010-12-12, 01:52:05,VALID,996.347,VALID,0,VALID,89.4573,VALID,0,VALID,22.9988,VALID,95,VALID,0.876172,
2010-12-12, 01:53:05,VALID,996.341,VALID,0,VALID,89.2437,VALID,0,VALID,23.0183,VALID,69,VALID,0.962891,
2010-12-12, 01:54:05,VALID,996.339,VALID,0,VALID,89.3886,VALID,0,VALID,23.0396,VALID,65,VALID,0.792188,
2010-12-12, 01:55:05,VALID,996.343,VALID,0,VALID,89.5794,VALID,0,VALID,23.0573,VALID,58,VALID,0.775781,
2010-12-12, 01:56:05,VALID,996.347,VALID,0,VALID,89.5412,VALID,0,VALID,23.0378,VALID,51,VALID,0.963281,
2010-12-12, 01:57:05,VALID,996.346,VALID,0,VALID,89.2208,VALID,0,VALID,23.0183,VALID,52,VALID,0.972266,
2010-12-12, 01:58:05,VALID,996.379,VALID,0,VALID,88.8469,VALID,0,VALID,23.0183,VALID,55,VALID,0.932422,
2010-12-12, 01:59:05,VALID,996.392,VALID,0,VALID,88.8088,VALID,0,VALID,23.0396,VALID,55,VALID,0.670313,
2010-12-12, 02:00:05,VALID,996.404,VALID,0,VALID,88.7554,VALID,0,VALID,23.0378,VALID,55,VALID,0.425781,
2010-12-12, 02:01:05,VALID,996.367,VALID,0,VALID,88.4731,VALID,0,VALID,23.0378,VALID,55,VALID,0.400781,
2010-12-12, 02:02:05,VALID,996.361,VALID,0,VALID,88.4578,VALID,0,VALID,23.0183,VALID,55,VALID,0,
2010-12-12, 02:03:05,VALID,996.312,VALID,0,VALID,88.4654,VALID,0,VALID,23.0183,VALID,55,VALID,0,
2010-12-12, 02:04:05,VALID,996.329,VALID,0,VALID,88.5036,VALID,0,VALID,23.0183,VALID,55,VALID,0.0910156,
2010-12-12, 02:05:05,VALID,996.302,VALID,0,VALID,88.5112,VALID,0,VALID,23.0201,VALID,55,VALID,0.272656,
2010-12-12, 02:06:05,VALID,996.285,VALID,0,VALID,88.5112,VALID,0,VALID,23.0183,VALID,55,VALID,0.0105469,
2010-12-12, 02:07:05,VALID,996.255,VALID,0,VALID,88.4807,VALID,0,VALID,23.0183,VALID,55,VALID,0,
2010-12-12, 02:08:05,VALID,996.216,VALID,0,VALID,88.6028,VALID,0,VALID,23.0396,VALID,55,VALID,0.286719,
2010-12-12, 02:09:05,VALID,996.233,VALID,0,VALID,88.7401,VALID,0,VALID,23.0396,VALID,55,VALID,0.278906,
2010-12-12, 02:10:05,VALID,996.225,VALID,0,VALID,88.6333,VALID,0,VALID,23.0378,VALID,55,VALID,0.426172,
2010-12-12, 02:11:05,VALID,996.269,VALID,0,VALID,88.4883,VALID,0,VALID,23.0573,VALID,55,VALID,0.565625,
2010-12-12, 02:12:05,VALID,996.252,VALID,0,VALID,88.5036,VALID,0,VALID,23.1176,VALID,55,VALID,0.609375,
2010-12-12, 02:13:05,VALID,996.267,VALID,0,VALID,88.4807,VALID,0,VALID,23.1159,VALID,56,VALID,0.832031,
2010-12-12, 02:14:05,VALID,996.254,VALID,0,VALID,88.3815,VALID,0,VALID,23.1354,VALID,72,VALID,0.766797,
2010-12-12, 02:15:05,VALID,996.262,VALID,0,VALID,88.206,VALID,0,VALID,23.1762,VALID,83,VALID,0.91875,
2010-12-12, 02:16:05,VALID,996.258,VALID,0,VALID,88.1679,VALID,0,VALID,23.1744,VALID,68,VALID,0.892578,
2010-12-12, 02:17:05,VALID,996.238,VALID,0,VALID,88.1526,VALID,0,VALID,23.2152,VALID,70,VALID,0.838281,
2010-12-12, 02:18:05,VALID,996.228,VALID,0,VALID,87.8169,VALID,0,VALID,23.1939,VALID,72,VALID,0.960156,
2010-12-12, 02:19:05,VALID,996.228,VALID,0,VALID,87.6186,VALID,0,VALID,23.1939,VALID,63,VALID,0.906641,
2010-12-12, 02:20:05,VALID,996.229,VALID,0,VALID,87.4583,VALID,0,VALID,23.2134,VALID,53,VALID,0.962109,
2010-12-12, 02:21:05,VALID,996.201,VALID,0,VALID,87.588,VALID,0,VALID,23.2329,VALID,48,VALID,0.762109,
2010-12-12, 02:22:05,VALID,996.197,VALID,0,VALID,87.733,VALID,0,VALID,23.2329,VALID,28,VALID,0.869141,
2010-12-12, 02:23:05,VALID,996.192,VALID,0,VALID,88.2442,VALID,0,VALID,23.2329,VALID,12,VALID,0.872656,
2010-12-12, 02:24:05,VALID,996.146,VALID,0,VALID,88.7249,VALID,0,VALID,23.2134,VALID,12,VALID,0.912109,
2010-12-12, 02:25:05,VALID,996.15,VALID,0,VALID,88.9537,VALID,0,VALID,23.1744,VALID,12,VALID,1.10078,
2010-12-12, 02:26:05,VALID,996.146,VALID,0,VALID,89.2284,VALID,0,VALID,23.1549,VALID,12,VALID,0.983203,
2010-12-12, 02:27:05,VALID,996.151,VALID,0,VALID,89.4954,VALID,0,VALID,23.1371,VALID,30,VALID,0.984766,
2010-12-12, 02:28:05,VALID,996.183,VALID,0,VALID,89.6328,VALID,0,VALID,23.0769,VALID,33,VALID,0.822266,
2010-12-12, 02:29:05,VALID,996.182,VALID,0,VALID,89.6709,VALID,0,VALID,23.0378,VALID,35,VALID,0.977734,
2010-12-12, 02:30:05,VALID,996.188,VALID,0,VALID,89.6633,VALID,0,VALID,23.0396,VALID,36,VALID,0.707812,
2010-12-12, 02:31:05,VALID,996.227,VALID,0,VALID,89.6938,VALID,0,VALID,22.9988,VALID,36,VALID,0.736719,
2010-12-12, 02:32:05,VALID,996.199,VALID,0,VALID,89.6938,VALID,0,VALID,22.9988,VALID,36,VALID,0.841797,
2010-12-12, 02:33:05,VALID,996.236,VALID,0,VALID,89.6709,VALID,0,VALID,22.9793,VALID,36,VALID,0.810547,
2010-12-12, 02:34:05,VALID,996.223,VALID,0,VALID,89.6938,VALID,0,VALID,22.9793,VALID,40,VALID,0.654297,
2010-12-12, 02:35:05,VALID,996.258,VALID,0,VALID,89.7091,VALID,0,VALID,22.9793,VALID,60,VALID,0.548047,
2010-12-12, 02:36:05,VALID,996.263,VALID,0,VALID,89.7167,VALID,0,VALID,22.9793,VALID,60,VALID,0.349609,
2010-12-12, 02:37:05,VALID,996.273,VALID,0,VALID,89.7472,VALID,0,VALID,22.9793,VALID,60,VALID,0.214844,
2010-12-12, 02:38:05,VALID,996.25,VALID,0,VALID,89.8311,VALID,0,VALID,22.9793,VALID,60,VALID,0.196094,
2010-12-12, 02:39:05,VALID,996.238,VALID,0,VALID,89.8846,VALID,0,VALID,22.9793,VALID,60,VALID,0.10625,
2010-12-12, 02:40:05,VALID,996.289,VALID,0,VALID,89.9685,VALID,0,VALID,22.9776,VALID,60,VALID,0.0078125,
2010-12-12, 02:41:05,VALID,996.289,VALID,0,VALID,90.0829,VALID,0,VALID,22.9776,VALID,60,VALID,0,
2010-12-12, 02:42:05,VALID,996.283,VALID,0,VALID,90.1592,VALID,0,VALID,22.9581,VALID,60,VALID,0.173828,
2010-12-12, 02:43:05,VALID,996.289,VALID,0,VALID,90.2203,VALID,0,VALID,22.9793,VALID,60,VALID,0.255469,
2010-12-12, 02:44:05,VALID,996.284,VALID,0,VALID,90.2431,VALID,0,VALID,22.9581,VALID,22,VALID,0.786719,
2010-12-12, 02:45:05,VALID,996.286,VALID,0,VALID,90.3118,VALID,0,VALID,22.9581,VALID,17,VALID,0.614062,
2010-12-12, 02:46:05,VALID,996.277,VALID,0,VALID,90.2813,VALID,0,VALID,22.9385,VALID,18,VALID,0.384766,
2010-12-12, 02:47:05,VALID,996.284,VALID,0,VALID,90.2126,VALID,0.112286,VALID,22.9581,VALID,18,VALID,0.432031,
2010-12-12, 02:48:05,VALID,996.284,VALID,0,VALID,90.2508,VALID,0.112286,VALID,22.9581,VALID,18,VALID,0.768359,
2010-12-12, 02:49:05,VALID,996.28,VALID,0,VALID,90.2279,VALID,0,VALID,22.9581,VALID,18,VALID,0.332812,
2010-12-12, 02:50:05,VALID,996.287,VALID,0,VALID,90.1897,VALID,0.112286,VALID,22.9385,VALID,18,VALID,0.29375,
2010-12-12, 02:51:05,VALID,996.299,VALID,0,VALID,90.1134,VALID,0,VALID,22.919,VALID,18,VALID,0.240625,
2010-12-12, 02:52:05,VALID,996.275,VALID,0,VALID,90.1287,VALID,0,VALID,22.919,VALID,18,VALID,0.312109,
2010-12-12, 02:53:04,VALID,996.296,VALID,0,VALID,90.1592,VALID,0,VALID,22.9208,VALID,18,VALID,0.353516,
2010-12-12, 02:54:04,VALID,996.322,VALID,0,VALID,90.1592,VALID,0,VALID,22.9208,VALID,18,VALID,0.360547,
2010-12-12, 02:55:04,VALID,996.305,VALID,0,VALID,90.1516,VALID,0.112286,VALID,22.8995,VALID,18,VALID,0.370313,
2010-12-12, 02:56:04,VALID,996.307,VALID,0,VALID,90.1668,VALID,0.112286,VALID,22.919,VALID,18,VALID,0.258594,
2010-12-12, 02:57:04,VALID,996.302,VALID,0,VALID,90.2203,VALID,0.112286,VALID,22.919,VALID,18,VALID,0.186328,
2010-12-12, 02:58:04,VALID,996.324,VALID,0,VALID,90.2813,VALID,0.112286,VALID,22.9385,VALID,18,VALID,0.101563,
2010-12-12, 02:59:04,VALID,996.341,VALID,0,VALID,90.1516,VALID,0.112286,VALID,22.9385,VALID,18,VALID,0.352734,
2010-12-12, 03:00:04,VALID,996.325,VALID,0,VALID,90.0295,VALID,0.112286,VALID,22.9385,VALID,18,VALID,0.363281,
2010-12-12, 03:01:04,VALID,996.333,VALID,0,VALID,89.8693,VALID,0,VALID,22.9385,VALID,27,VALID,0.33125,
2010-12-12, 03:02:04,VALID,996.35,VALID,0,VALID,89.6633,VALID,0,VALID,22.9581,VALID,140,VALID,0.754297,
2010-12-12, 03:03:04,VALID,996.313,VALID,0,VALID,89.4573,VALID,0.112286,VALID,22.9776,VALID,144,VALID,0.901953,
2010-12-12, 03:04:04,VALID,996.331,VALID,0,VALID,89.1826,VALID,0.112286,VALID,23.0166,VALID,154,VALID,0.844141,
2010-12-12, 03:05:04,VALID,996.316,VALID,0,VALID,88.9003,VALID,0,VALID,23.0556,VALID,169,VALID,0.848437,
2010-12-12, 03:06:04,VALID,996.3,VALID,0,VALID,88.557,VALID,0,VALID,23.1141,VALID,181,VALID,0.700781,
2010-12-12, 03:07:04,VALID,996.296,VALID,0,VALID,87.7483,VALID,0,VALID,23.1141,VALID,160,VALID,1.21641,
2010-12-12, 03:08:04,VALID,996.316,VALID,0,VALID,86.9548,VALID,0.112286,VALID,23.1531,VALID,157,VALID,1.19336,
2010-12-12, 03:09:04,VALID,996.258,VALID,0,VALID,86.6877,VALID,0,VALID,23.2524,VALID,181,VALID,1.28086,
2010-12-12, 03:10:04,VALID,996.276,VALID,0,VALID,86.3063,VALID,0,VALID,23.2719,VALID,166,VALID,1.46367,
2010-12-12, 03:11:04,VALID,996.277,VALID,0,VALID,86.2834,VALID,0,VALID,23.3305,VALID,163,VALID,1.18594,
2010-12-12, 03:12:04,VALID,996.291,VALID,0,VALID,86.3749,VALID,0,VALID,23.35,VALID,182,VALID,0.810156,
2010-12-12, 03:13:04,VALID,996.304,VALID,0,VALID,86.4589,VALID,0,VALID,23.3695,VALID,158,VALID,1.06055,
2010-12-12, 03:14:04,VALID,996.319,VALID,0,VALID,86.497,VALID,0,VALID,23.3677,VALID,159,VALID,1.08281,
2010-12-12, 03:15:04,VALID,996.314,VALID,0,VALID,86.3673,VALID,0,VALID,23.389,VALID,128,VALID,0.761328,
2010-12-12, 03:16:04,VALID,996.298,VALID,0,VALID,86.3292,VALID,0,VALID,23.4085,VALID,145,VALID,0.5875,
2010-12-12, 03:17:04,VALID,996.325,VALID,0,VALID,86.4207,VALID,0,VALID,23.4085,VALID,146,VALID,0.363281,
2010-12-12, 03:18:04,VALID,996.306,VALID,0,VALID,86.4894,VALID,0,VALID,23.4085,VALID,154,VALID,0.0890625,
2010-12-12, 03:19:04,VALID,996.281,VALID,0,VALID,86.5046,VALID,0,VALID,23.3695,VALID,154,VALID,0,
2010-12-12, 03:20:04,VALID,996.261,VALID,0,VALID,86.6115,VALID,0,VALID,23.3695,VALID,154,VALID,0,
2010-12-12, 03:21:04,VALID,996.287,VALID,0,VALID,86.7183,VALID,0,VALID,23.3305,VALID,154,VALID,0,
2010-12-12, 03:22:04,VALID,996.281,VALID,0,VALID,86.8937,VALID,0,VALID,23.311,VALID,154,VALID,0.00078125,
2010-12-12, 03:23:04,VALID,996.289,VALID,0,VALID,86.8174,VALID,0,VALID,23.311,VALID,154,VALID,0.355078,
2010-12-12, 03:24:04,VALID,996.302,VALID,0,VALID,86.9548,VALID,0,VALID,23.3127,VALID,154,VALID,0.405469,
2010-12-12, 03:25:04,VALID,996.324,VALID,0,VALID,87.1684,VALID,0.112286,VALID,23.3092,VALID,154,VALID,0.285937,
2010-12-12, 03:26:04,VALID,996.295,VALID,0,VALID,87.1989,VALID,0,VALID,23.2897,VALID,146,VALID,0.381641,
2010-12-12, 03:27:04,VALID,996.294,VALID,0,VALID,87.4583,VALID,0,VALID,23.2915,VALID,139,VALID,0.213672,
2010-12-12, 03:28:04,VALID,996.27,VALID,0,VALID,87.6567,VALID,0.112286,VALID,23.2702,VALID,139,VALID,0.510938,
2010-12-12, 03:29:04,VALID,996.226,VALID,0,VALID,87.7864,VALID,0.112286,VALID,23.2702,VALID,139,VALID,0.524219,
2010-12-12, 03:30:04,VALID,996.252,VALID,0,VALID,87.8703,VALID,0.112286,VALID,23.2915,VALID,139,VALID,0.585938,
2010-12-12, 03:31:04,VALID,996.251,VALID,0,VALID,87.9466,VALID,0.112286,VALID,23.2702,VALID,139,VALID,0.614453,
2010-12-12, 03:32:04,VALID,996.207,VALID,0,VALID,88.0077,VALID,0,VALID,23.2702,VALID,139,VALID,0.566406,
2010-12-12, 03:33:04,VALID,996.208,VALID,0,VALID,88.0153,VALID,0,VALID,23.2507,VALID,139,VALID,0.448438,
2010-12-12, 03:34:04,VALID,996.204,VALID,0,VALID,88,VALID,0,VALID,23.2719,VALID,139,VALID,0.371875,
2010-12-12, 03:35:04,VALID,996.198,VALID,0,VALID,87.8551,VALID,0,VALID,23.2507,VALID,139,VALID,0.471484,
2010-12-12, 03:36:04,VALID,996.178,VALID,0,VALID,87.878,VALID,0.112286,VALID,23.2702,VALID,139,VALID,0.551562,
2010-12-12, 03:37:04,VALID,996.154,VALID,0,VALID,87.8474,VALID,0,VALID,23.2719,VALID,139,VALID,0.591016,
2010-12-12, 03:38:04,VALID,996.173,VALID,0,VALID,87.6643,VALID,0,VALID,23.2507,VALID,139,VALID,0.588281,
2010-12-12, 03:39:04,VALID,996.176,VALID,0,VALID,87.4202,VALID,0,VALID,23.2507,VALID,139,VALID,0.446094,
2010-12-12, 03:40:04,VALID,996.159,VALID,0,VALID,87.2905,VALID,0,VALID,23.2702,VALID,139,VALID,0.293359,
2010-12-12, 03:41:04,VALID,996.171,VALID,0,VALID,87.2142,VALID,0,VALID,23.2702,VALID,139,VALID,0.316016,
2010-12-12, 03:42:04,VALID,996.162,VALID,0,VALID,87.0158,VALID,0,VALID,23.2702,VALID,84,VALID,0.607813,
2010-12-12, 03:43:04,VALID,996.17,VALID,0,VALID,87.0616,VALID,0,VALID,23.2702,VALID,64,VALID,0.51875,
2010-12-12, 03:44:04,VALID,996.183,VALID,0,VALID,87.054,VALID,0,VALID,23.2702,VALID,64,VALID,0.560938,